Theta_e
354 354 352 350 349 349 350 350 349 349 348 348 348 347 348 353 354 354 354 351 352 354 352 354 354 358 360 360 361 360 361 361 363 362 361 359 359 359 359 360 358 358 359 358 359 358 357 355 356 359 360 357 357 357 356 357 358 357 356 354 353 354 351 347 343 344 348 352 355 355 358 357 355 353 354 356 358 359 360 360 358 356 356 355 355
354 355 354 351 349 349 350 351 351 350 348 348 349 348 348 350 353 353 353 352 351 352 354 355 355 357 358 359 359 360 360 360 362 361 361 359 359 361 358 359 357 356 357 356 358 360 359 355 355 357 360 356 359 358 355 354 356 356 355 357 355 356 356 351 348 345 346 348 352 356 356 359 355 355 354 356 357 358 357 358 361 362 362 361 360
356 356 355 353 350 350 350 350 351 350 349 349 350 350 350 350 353 353 353 353 352 350 355 355 356 356 356 357 357 358 359 359 360 360 360 360 358 360 359 359 358 357 357 357 357 358 357 357 356 357 361 357 357 357 357 354 353 353 354 355 354 354 356 356 351 348 349 350 352 353 353 353 353 354 356 358 357 359 358 359 360 362 364 363 363
357 356 355 354 353 351 350 350 351 351 349 349 350 352 352 351 354 354 353 354 353 351 353 355 357 356 355 355 356 357 358 359 359 359 359 360 359 359 358 358 358 357 358 358 359 358 356 355 357 358 357 355 356 356 356 355 353 353 352 355 355 355 355 357 356 351 349 348 348 352 352 350 353 356 359 360 359 358 358 359 360 361 362 364 363
358 357 356 355 354 353 351 351 350 351 351 351 351 353 354 353 354 355 354 353 354 352 351 355 356 357 356 356 356 357 357 358 358 358 359 360 360 359 358 356 357 358 358 358 364 358 357 355 355 356 355 354 354 355 356 354 354 353 353 352 352 354 356 356 355 355 352 349 347 350 352 354 355 357 358 357 356 356 358 359 360 362 362 363 365
359 357 356 355 354 353 353 351 351 350 351 351 352 353 354 355 354 356 356 354 354 354 351 352 355 357 357 357 358 357 358 358 358 357 358 359 359 360 359 357 356 356 357 358 360 359 358 357 357 356 355 354 354 354 355 355 355 355 354 353 354 354 352 351 352 351 350 349 350 351 350 354 353 354 357 357 356 356 356 357 358 361 360 359 360
359 358 357 355 355 354 353 352 351 351 351 351 352 353 354 355 355 355 357 355 354 354 353 352 354 356 357 358 358 358 357 358 358 357 357 358 359 359 358 358 357 356 356 357 359 360 359 358 357 357 355 354 353 353 354 354 355 355 355 355 355 355 355 355 355 354 354 353 353 354 354 354 354 354 356 359 359 357 355 354 351 354 356 357 357
359 358 357 356 354 354 354 354 353 352 352 352 352 353 354 355 356 356 357 356 354 354 353 353 353 356 358 358 359 359 357 357 357 357 356 356 357 358 358 357 357 357 357 357 358 359 359 359 358 358 357 356 355 354 354 354 356 355 356 356 356 355 354 354 354 354 353 353 352 352 351 352 350 354 355 351 351 352 354 353 350 352 354 353 358
359 359 358 356 355 354 355 355 354 354 354 353 353 353 354 355 357 357 357 356 356 354 354 354 354 355 357 358 358 359 358 356 357 357 356 355 356 357 357 357 357 355 355 356 357 357 358 358 358 358 360 366 363 361 361 361 357 355 355 355 356 356 355 355 354 354 353 352 353 352 351 350 350 350 351 348 349 350 353 352 353 352 353 357 359
360 359 358 358 357 355 355 355 355 355 354 353 353 354 354 355 357 357 357 357 356 354 353 354 355 355 356 357 357 358 359 358 355 348 350 356 355 356 357 356 356 356 355 354 355 356 357 358 360 369 360 356 353 352 350 354 360 360 357 357 356 355 355 354 354 354 353 352 352 351 350 350 350 350 350 351 354 353 352 350 350 352 352 353 355
360 359 359 360 358 356 356 355 355 354 354 354 353 354 354 355 356 357 357 357 356 354 353 353 354 356 356 357 356 357 359 359 346 338 340 346 355 355 355 355 355 355 355 354 353 354 356 357 357 366 370 365 354 346 346 345 347 350 353 361 365 357 355 354 354 355 353 353 353 352 351 351 351 351 351 351 352 351 351 350 351 348 349 347 349
360 360 360 360 359 357 356 356 355 355 355 354 354 354 355 355 355 356 357 356 356 355 352 353 354 355 357 357 357 357 357 352 338 335 337 338 348 357 355 355 355 354 354 354 355 354 354 356 357 358 357 358 358 356 349 346 342 343 344 346 352 358 358 358 355 354 354 353 352 353 352 352 352 350 352 351 350 351 351 350 349 348 349 349 347
360 360 361 360 359 358 357 357 356 355 355 355 355 355 355 355 354 355 356 356 356 354 353 353 354 355 356 357 357 358 357 346 335 333 335 335 337 351 356 355 355 354 354 354 354 355 354 354 354 356 357 364 367 357 355 353 345 339 340 342 344 343 339 342 348 359 358 355 355 354 353 353 351 352 352 351 351 348 348 348 349 349 353 352 352
359 360 360 360 359 359 358 357 356 356 356 356 355 355 354 354 355 355 357 357 355 355 354 352 354 355 356 357 358 359 358 346 332 330 331 332 334 342 357 355 355 356 356 355 355 355 355 354 353 353 353 354 355 357 356 353 353 351 348 347 348 352 345 336 333 335 343 352 349 347 348 348 348 348 351 351 351 349 348 349 350 350 352 354 355
359 360 360 360 360 359 358 358 356 356 356 356 356 355 354 355 355 355 355 356 355 354 354 353 353 355 356 357 358 359 361 340 328 328 328 328 331 338 356 356 354 353 356 357 356 356 355 356 354 353 353 352 353 355 354 355 353 353 351 350 350 351 352 353 352 349 345 345 346 347 348 347 347 348 349 351 355 356 355 354 353 352 354 352 351
358 359 359 360 360 360 359 358 357 357 357 357 356 355 355 355 355 356 355 355 356 356 355 355 353 354 356 357 357 357 360 333 327 326 326 327 330 345 354 356 354 353 352 354 357 357 356 356 355 354 354 353 354 348 354 356 356 355 353 352 352 352 354 355 345 347 355 353 351 350 350 350 343 349 350 350 351 353 360 360 355 352 348 347 347
357 359 359 360 360 361 360 359 358 357 357 357 356 356 355 355 356 357 354 353 355 355 355 355 355 354 354 356 356 356 358 336 326 324 325 326 330 350 354 356 356 355 353 353 355 357 358 357 356 356 356 355 350 337 337 355 356 357 357 357 357 357 356 360 343 333 334 333 333 335 335 334 333 331 329 331 345 350 350 347 349 348 347 346 347
358 359 359 361 361 361 361 360 358 358 357 357 357 357 357 357 356 357 355 352 353 356 356 356 355 355 354 354 357 356 357 339 322 322 323 323 335 352 354 355 355 355 354 354 356 359 361 367 367 357 356 356 343 334 333 344 352 354 356 357 357 359 360 363 365 358 333 329 329 329 330 331 332 332 333 330 331 342 349 346 351 349 348 347 346
357 359 360 361 362 362 362 361 360 359 358 358 358 358 358 357 357 357 356 354 353 356 358 356 356 356 355 355 356 355 357 342 318 322 321 321 334 353 355 355 354 354 354 353 352 353 355 365 370 362 358 353 338 333 331 341 350 351 352 353 353 353 356 358 358 357 352 348 349 347 346 343 343 343 345 336 333 344 348 351 352 349 348 348 348
357 360 361 362 363 363 363 362 361 360 359 359 359 359 360 359 357 356 356 355 353 354 357 357 356 356 357 356 356 355 354 355 328 318 318 318 324 353 355 354 353 353 354 353 351 351 351 352 354 339 333 335 333 329 328 327 350 352 352 351 350 350 355 354 354 355 353 354 354 354 352 353 351 349 348 349 348 348 346 349 351 352 350 350 350
357 360 362 362 363 363 364 363 362 362 361 360 360 360 360 359 358 357 356 356 354 353 356 357 357 357 357 357 356 356 355 354 337 316 316 317 319 335 355 355 355 354 353 353 352 351 350 350 351 342 329 325 323 322 321 320 333 355 355 354 354 354 354 356 359 372 359 356 356 357 356 354 354 354 352 352 353 354 353 350 352 353 352 351 351
357 359 362 362 363 364 364 364 364 363 363 362 360 360 361 361 359 358 357 355 354 353 354 356 357 357 358 358 357 357 356 348 350 318 316 314 317 322 350 356 355 355 354 353 353 352 352 352 352 344 330 325 322 319 317 318 320 345 355 337 337 340 355 358 358 356 355 354 351 350 351 352 355 357 357 357 357 357 361 361 357 356 357 357 356
356 359 362 362 363 363 364 364 364 365 364 363 361 360 360 360 359 358 356 355 353 352 352 355 356 357 357 358 357 357 358 355 339 331 316 314 314 317 328 344 338 356 355 353 353 354 355 355 357 350 330 323 320 319 318 318 321 333 328 329 330 332 350 354 351 353 351 350 348 349 347 348 351 351 353 355 358 358 350 350 351 353 351 350 350
357 358 361 362 363 363 365 366 366 366 365 364 363 361 361 361 360 358 357 355 353 351 351 353 355 356 356 357 358 358 359 360 339 330 326 313 313 314 318 326 333 351 357 356 356 356 356 356 352 335 324 317 317 319 319 321 332 322 319 324 328 337 348 349 348 351 347 346 347 348 348 346 347 348 350 354 356 351 352 349 347 347 346 346 350
356 357 360 362 362 363 365 366 366 366 366 365 363 363 362 362 360 359 357 355 353 351 351 351 351 353 355 356 357 358 359 360 357 336 325 317 314 313 316 320 323 328 352 357 357 358 345 337 333 328 325 319 318 320 321 320 318 321 322 323 340 344 346 346 348 348 346 347 347 348 348 348 349 350 352 355 352 350 349 349 349 347 349 351 348
356 356 359 361 362 363 364 365 366 366 366 366 365 365 363 362 361 360 358 356 354 352 351 350 350 350 352 355 356 358 359 359 359 348 331 323 318 315 316 318 322 324 339 353 347 333 325 324 321 322 324 326 331 334 336 337 324 321 325 331 338 343 345 346 346 346 346 347 346 347 348 348 349 352 354 355 351 347 345 346 347 349 347 344 341
356 357 359 361 362 362 363 363 364 365 365 365 366 366 365 364 362 359 359 358 356 354 352 351 350 349 349 352 355 357 358 358 358 349 341 335 332 328 320 323 321 323 331 340 337 334 328 332 335 328 332 326 334 337 335 338 334 331 331 335 339 342 344 345 347 347 346 347 346 347 348 350 352 352 352 351 349 347 347 346 345 344 343 344 335
357 358 359 361 361 362 362 360 362 364 364 364 365 365 365 365 363 360 359 359 357 355 353 352 351 350 349 350 351 353 355 357 359 352 344 341 337 335 330 330 332 333 337 341 344 347 343 338 331 342 339 336 340 344 343 344 340 337 337 337 339 342 346 352 353 348 349 349 348 347 347 350 351 353 351 348 346 346 347 346 344 341 338 337 334
358 359 360 361 361 360 362 361 362 363 363 363 365 366 365 365 363 362 364 364 361 358 356 355 354 354 353 351 350 350 353 355 359 340 347 329 336 339 334 333 335 336 335 331 345 347 347 345 345 346 345 344 345 349 350 347 343 341 341 340 341 343 345 346 347 348 348 346 348 348 348 351 348 345 344 345 345 346 347 345 342 340 340 338 336
359 359 361 361 361 360 360 361 362 362 363 362 362 343 317 303 314 355 362 350 341 336 336 355 357 357 355 354 354 351 352 356 337 325 320 317 317 321 323 321 321 333 330 322 336 346 346 348 347 346 346 346 346 346 348 350 348 347 345 338 342 345 345 346 347 347 348 348 350 351 351 346 345 344 343 341 345 347 345 339 342 342 339 337 335
361 360 360 360 358 360 360 360 361 361 362 363 361 349 341 333 305 299 305 329 332 322 320 328 333 337 353 356 350 336 337 333 318 315 314 313 312 313 314 313 313 316 318 326 336 342 345 344 346 347 346 347 346 347 346 347 347 348 349 346 346 346 344 347 347 345 346 348 350 350 344 344 341 341 341 339 339 343 342 341 339 338 337 335 334
354 358 360 361 357 356 360 360 360 360 360 359 353 348 347 343 335 310 300 301 314 318 319 320 319 323 329 339 348 345 330 321 313 310 312 312 312 311 310 309 310 312 310 319 338 340 343 345 345 346 347 346 346 347 348 349 348 349 349 349 347 347 346 347 346 349 348 351 351 346 342 341 341 339 339 337 335 337 336 335 336 336 335 336 335
351 349 345 347 350 351 354 356 352 350 347 350 348 349 349 346 343 335 327 306 299 299 300 306 315 317 319 320 323 328 326 319 309 308 309 310 309 309 308 308 308 305 311 332 342 341 343 345 347 348 347 347 348 348 349 349 349 349 350 350 349 348 348 349 348 350 348 348 345 340 339 339 337 333 331 330 330 329 325 326 327 331 333 333 334
347 347 345 345 348 345 342 340 342 341 340 340 340 340 342 342 343 338 336 338 338 323 308 301 299 307 309 313 315 319 315 312 308 307 306 307 308 308 307 311 301 305 321 341 343 343 344 345 346 348 350 350 350 349 349 350 350 351 351 350 350 350 348 344 343 338 337 338 339 337 336 335 334 334 333 332 330 327 325 323 325 327 330 332 332
344 350 354 351 343 344 344 345 345 342 340 341 341 341 340 342 341 341 342 342 342 340 337 330 308 296 309 306 302 306 306 306 305 305 305 305 305 303 309 329 331 329 333 341 344 345 344 345 345 346 349 349 349 349 350 351 351 351 350 348 346 343 340 338 337 336 337 337 337 336 335 334 335 333 332 332 330 328 327 329 331 332 331 330 329
345 344 345 346 342 342 341 340 338 339 340 342 343 344 344 345 344 345 342 345 344 340 332 324 320 311 301 296 295 297 299 300 301 302 303 303 305 315 340 339 338 337 337 341 345 346 347 348 347 347 347 348 350 350 351 350 348 347 346 345 340 340 338 337 335 336 336 336 335 335 332 335 333 330 330 330 329 327 328 329 330 331 331 330 330
335 342 343 342 342 341 342 342 342 342 338 338 339 341 344 346 346 345 345 347 344 338 329 326 330 331 324 321 309 298 297 299 300 300 301 303 308 334 347 344 342 340 339 342 344 342 341 341 342 342 341 340 339 339 339 340 339 339 334 339 338 337 336 335 335 334 335 334 334 333 332 331 331 331 329 326 326 326 327 329 330 329 328 327 328
331 328 330 338 341 339 342 342 342 337 338 339 340 341 341 342 343 343 345 346 341 334 333 336 338 339 336 328 330 322 314 307 310 310 311 314 329 343 348 346 346 343 343 342 340 338 334 333 334 335 336 337 337 336 336 335 334 334 333 332 332 331 328 331 332 334 334 334 333 333 332 332 331 331 328 328 326 325 326 327 326 326 326 326 325
330 324 322 325 329 339 344 342 340 339 339 339 340 339 339 340 341 342 343 342 339 338 338 340 341 337 331 327 326 326 334 341 340 338 338 341 341 339 339 339 338 336 335 335 333 332 332 331 331 333 333 334 333 333 334 334 334 333 333 333 332 333 333 333 333 334 334 334 334 333 332 331 330 329 329 327 327 327 328 327 328 328 328 326 326
329 327 323 323 327 328 332 339 341 340 340 339 339 339 339 340 341 342 342 341 340 339 340 339 334 331 330 330 329 334 341 340 339 340 340 338 335 335 335 334 334 333 332 331 331 331 331 331 331 331 331 332 332 331 332 332 332 331 331 331 332 332 332 332 332 332 333 334 334 332 331 331 331 329 329 328 328 329 329 330 329 328 328 327 326
325 327 327 322 322 325 327 328 330 335 339 339 339 339 339 340 340 340 341 339 337 335 333 331 331 332 329 323 313 319 339 338 336 335 333 333 332 332 332 332 331 331 330 330 330 330 330 330 329 329 329 328 329 330 331 332 332 332 331 331 332 331 332 333 334 334 334 333 332 330 331 331 329 329 327 328 326 327 327 327 328 327 327 326 327
323 321 323 323 322 324 323 323 324 327 331 333 334 333 333 335 336 335 332 330 328 327 326 326 327 326 313 308 309 312 326 328 328 327 327 328 328 328 328 329 330 330 330 329 327 322 320 318 316 315 314 313 313 313 313 315 321 320 318 320 323 325 324 324 325 325 325 325 326 329 329 329 329 328 329 326 329 329 328 329 328 327 327 327 327
322 321 320 321 321 320 320 320 321 322 322 323 324 328 328 328 328 327 326 326 325 324 324 324 324 324 320 313 314 314 323 323 323 321 320 320 319 319 319 319 320 321 320 320 319 318 316 313 311 309 308 307 307 307 307 307 310 310 311 312 313 314 315 316 317 318 320 321 322 324 327 328 326 326 327 326 327 327 328 328 327 327 326 326 327
321 320 319 319 318 318 318 318 318 320 320 321 321 321 320 321 320 320 320 319 319 319 319 320 320 319 318 316 315 317 318 318 317 317 317 317 317 317 317 317 317 317 316 316 315 313 311 309 307 305 304 303 302 302 301 301 302 303 305 306 307 307 307 308 310 312 314 316 317 319 320 321 323 325 326 325 326 326 326 327 326 327 326 326 326
319 319 317 316 315 315 314 315 316 316 317 317 316 317 317 316 316 316 317 316 317 316 316 316 316 315 315 315 315 315 314 314 314 314 314 314 314 313 313 313 312 311 311 310 309 308 306 304 303 301 300 299 299 299 298 298 298 298 299 299 300 300 301 302 306 308 311 314 315 317 318 319 320 320 322 321 320 321 320 319 320 321 320 319 319
315 317 316 315 314 314 314 313 314 312 312 312 311 312 313 313 313 314 314 314 314 313 313 314 314 313 313 313 313 313 312 312 312 312 312 312 312 312 311 310 309 308 308 307 305 304 302 301 300 298 297 297 297 297 297 297 297 296 296 296 296 296 297 298 303 305 306 309 312 316 319 319 318 319 320 317 317 316 315 315 314 314 314 313 313
313 314 313 313 312 312 313 312 311 311 310 310 310 310 309 310 311 311 312 312 312 312 311 311 311 311 311 311 311 311 311 311 311 310 310 310 310 310 310 308 307 306 304 303 302 300 299 298 298 298 297 296 296 296 295 295 295 295 295 294 294 294 294 295 301 302 303 306 310 316 317 316 315 314 314 314 313 313 313 312 312 312 312 311 311
310 311 311 311 311 310 309 309 310 310 309 309 309 309 309 308 307 308 307 308 309 309 309 309 309 310 310 309 309 309 309 308 308 308 307 307 307 307 307 306 306 304 303 301 300 299 298 297 297 297 296 296 296 295 294 294 294 294 293 292 292 292 292 295 298 299 299 306 313 315 315 315 314 313 312 312 311 311 310 310 311 310 311 310 310
308 308 308 309 308 308 307 307 308 307 306 307 306 306 306 306 305 305 305 305 305 306 306 305 306 306 307 307 308 307 307 307 305 305 305 305 304 303 303 304 304 304 303 301 301 301 300 299 299 297 296 295 295 294 294 293 292 292 292 291 291 291 290 293 295 295 297 308 312 312 313 313 312 310 310 310 310 309 309 310 310 310 310 310 310
307 307 307 306 306 306 306 306 305 305 305 305 304 303 304 303 303 303 303 303 302 303 303 303 303 303 303 304 304 304 304 303 303 302 302 302 302 302 301 300 299 299 299 299 299 299 298 298 298 297 297 296 295 294 293 292 291 291 290 290 290 289 288 290 292 293 297 304 308 308 310 310 307 304 303 303 305 306 308 309 310 309 309 308 309
306 305 305 305 305 305 304 304 303 303 303 303 302 302 302 301 301 301 301 301 300 301 301 301 301 302 302 302 303 302 302 302 302 302 301 300 300 300 300 299 299 298 297 296 296 296 296 296 296 295 295 295 294 294 294 293 291 290 290 290 289 289 288 290 292 291 294 298 305 304 304 304 303 301 301 301 301 301 305 308 309 308 309 308 308
Wind_Speed
17 15 14 15 15 15 15 14 15 13 13 13 13 12 11 11 11 11 10 10 9 10 11 11 10 10 10 9 10 9 9 8 8 8 7 7 7 7 7 7 6 5 4 5 5 5 5 5 4 3 3 3 2 1 2 3 3 5 4 5 5 4 5 4 5 6 5 3 4 5 5 4 5 3 4 5 5 5 5 4 5 5 6 5 5
17 16 15 15 16 16 16 15 14 13 14 14 14 13 12 11 12 10 11 12 11 11 11 11 11 11 10 10 10 10 9 9 9 8 8 8 8 6 7 8 8 7 5 5 5 5 5 6 5 5 3 3 2 3 3 3 3 4 5 6 6 6 5 5 6 5 7 3 4 5 4 3 5 2 4 5 5 5 7 7 6 5 6 6 5
17 15 15 15 17 16 16 15 14 15 16 14 15 14 13 12 11 12 12 11 11 11 11 11 12 12 11 10 9 10 10 10 8 9 9 10 10 8 7 8 9 8 8 8 7 5 4 5 6 5 4 4 4 4 3 4 3 4 5 4 5 5 5 5 5 6 7 7 4 5 4 3 4 5 4 5 5 5 6 7 7 7 6 6 6
17 16 16 16 16 15 15 15 17 16 16 15 16 15 14 13 12 12 13 11 12 11 11 11 11 12 12 11 10 10 10 10 10 10 11 10 10 10 9 7 8 9 9 8 7 6 7 5 5 6 5 5 5 5 5 4 5 4 4 4 6 6 5 5 5 6 5 5 4 5 3 3 4 4 5 5 6 6 6 7 6 7 8 7 6
17 17 17 17 17 16 16 16 17 17 17 15 16 16 15 14 12 13 12 12 12 11 11 10 11 12 12 12 12 11 11 12 12 11 10 10 11 10 9 8 7 9 9 8 8 7 6 6 6 5 5 6 5 6 6 6 6 6 6 4 5 6 5 5 6 6 6 6 5 3 3 3 4 4 4 6 6 6 6 7 7 7 8 7 6
17 16 16 17 17 18 17 17 18 18 18 16 17 16 15 14 14 13 13 14 12 12 12 11 11 12 12 12 12 12 11 12 12 12 12 11 10 10 9 8 8 8 8 8 8 7 7 7 7 6 5 6 7 6 6 7 6 6 6 6 6 4 4 4 4 5 5 7 5 6 3 5 4 4 5 5 6 7 6 7 5 6 6 7 7
16 16 17 18 17 18 18 18 17 17 17 16 15 14 15 14 14 14 13 14 13 13 13 13 11 12 12 12 12 12 11 11 12 12 11 10 10 10 10 9 8 8 8 9 8 8 8 7 7 7 7 7 7 7 6 6 6 6 7 6 5 5 6 5 5 5 5 6 5 5 6 5 5 7 5 5 6 5 6 7 7 6 5 5 7
15 16 16 17 17 18 18 17 17 17 16 15 15 15 15 14 14 14 13 14 14 14 14 14 12 12 12 12 12 12 11 11 11 11 10 10 10 10 10 10 9 8 8 9 9 9 9 8 8 7 8 7 7 7 7 7 6 6 7 6 6 6 6 6 5 6 6 5 6 7 5 6 3 4 3 2 4 6 5 5 8 7 7 3 3
15 16 16 17 17 17 15 15 14 15 16 15 15 15 15 14 13 13 13 14 13 13 14 14 14 13 12 12 12 11 11 11 9 10 11 11 10 11 11 10 10 9 8 8 9 9 9 9 8 8 8 11 12 10 9 9 6 7 7 6 6 6 6 6 7 7 6 6 7 5 5 6 6 5 7 5 6 8 6 3 4 4 3 5 6
16 16 16 16 15 14 15 14 14 15 15 16 16 15 15 15 14 14 14 14 13 12 13 14 14 14 14 13 12 11 10 9 12 17 15 12 11 10 9 10 10 9 9 9 8 9 9 9 9 13 14 15 15 15 15 14 13 10 8 7 8 7 7 7 7 7 7 7 8 6 7 8 7 5 6 5 5 4 4 2 2 4 3 5 6
15 16 16 15 14 14 14 14 14 15 16 15 15 15 15 14 14 14 14 14 14 12 11 14 14 13 14 13 14 12 11 10 17 17 18 19 13 10 10 10 10 9 9 9 9 10 9 9 8 11 14 15 15 18 17 17 16 15 14 12 11 9 7 7 7 7 7 7 7 5 7 9 8 6 6 7 5 5 3 1 2 2 3 5 8
15 15 15 14 14 15 14 15 15 15 15 15 15 15 14 14 14 13 13 15 13 13 12 12 14 13 13 13 13 12 11 14 18 19 19 19 17 12 10 9 9 10 9 10 9 9 9 9 9 8 7 8 10 12 15 18 18 17 17 15 14 14 12 10 8 6 6 7 7 8 6 8 8 5 6 3 6 5 3 2 2 3 4 5 4
14 14 14 15 15 15 14 15 15 15 15 15 14 14 14 14 14 14 15 14 13 14 14 11 12 13 13 13 13 13 12 15 18 19 19 19 19 16 10 9 9 10 10 10 9 9 8 8 8 8 9 15 10 9 10 12 15 18 17 17 15 14 13 13 11 9 7 7 8 9 8 6 6 6 4 3 2 2 4 5 3 3 4 5 5
14 15 15 16 15 15 15 15 16 15 14 14 14 15 14 14 14 13 12 13 14 14 14 13 11 12 13 13 13 12 13 14 18 19 19 19 19 16 11 11 9 10 10 10 9 9 9 9 8 8 6 7 8 8 8 10 10 11 10 9 9 12 14 15 14 11 7 7 7 10 10 5 10 9 8 4 5 8 5 6 4 4 4 6 5
13 14 15 16 16 15 16 16 16 15 14 14 14 15 15 14 14 13 12 13 14 15 15 14 11 11 12 13 12 12 12 16 18 19 19 19 19 16 11 10 8 8 8 9 10 10 9 8 9 10 9 7 6 7 8 9 8 8 9 10 11 11 10 10 9 8 8 8 9 11 12 10 10 11 10 7 6 6 5 5 6 6 5 2 3
13 15 15 16 18 17 17 16 16 15 15 15 15 16 15 15 14 13 12 11 12 12 12 13 13 11 11 13 13 13 12 18 19 20 20 20 19 12 11 10 9 8 8 7 9 10 10 9 8 9 9 9 12 14 11 7 7 8 9 9 9 8 9 11 12 10 10 9 10 11 12 13 13 12 11 8 6 5 5 3 2 1 2 5 7
13 15 17 17 17 17 17 17 16 16 16 16 16 16 16 15 14 11 12 12 11 13 13 13 12 12 11 11 14 13 12 16 20 21 21 22 15 10 11 10 10 9 8 7 8 9 10 10 10 10 9 10 13 16 15 10 6 8 8 9 8 8 9 8 11 15 16 17 18 18 17 17 17 16 15 13 8 4 1 4 7 3 4 7 7
14 14 16 17 18 17 16 16 17 16 16 17 17 16 15 14 14 12 12 12 12 13 12 12 12 12 13 12 12 12 12 13 21 21 21 21 18 13 11 11 11 11 10 7 5 6 8 14 14 11 11 11 14 16 16 12 8 8 8 8 8 9 9 7 6 8 16 19 18 16 16 15 14 14 13 12 12 6 5 8 6 1 6 6 7
15 15 16 15 15 16 16 16 16 17 17 17 16 16 16 15 14 12 12 11 11 10 11 11 11 11 12 13 14 12 10 11 19 21 22 21 18 12 12 11 11 11 10 10 8 7 6 7 12 12 12 13 16 16 17 13 9 9 9 8 9 10 10 6 6 6 3 3 5 7 9 12 11 9 9 13 11 8 7 8 5 5 7 7 6
16 12 11 12 14 15 15 17 17 17 17 16 15 15 13 12 14 14 13 11 10 9 11 11 12 11 11 11 11 12 10 7 13 20 21 21 23 15 10 10 11 12 11 11 10 10 9 9 9 12 14 14 15 17 17 16 12 9 8 9 10 12 8 5 6 5 5 7 7 6 7 7 6 6 6 6 7 7 8 7 7 6 7 7 7
12 10 11 13 14 16 15 16 17 16 15 14 13 13 12 13 14 14 14 12 11 10 11 11 12 11 11 10 10 11 12 10 11 20 19 21 22 19 11 13 13 12 11 11 10 10 10 11 9 13 16 16 15 15 15 16 15 10 10 10 11 10 4 5 7 9 4 3 2 3 4 4 4 5 5 6 6 7 7 9 9 7 7 8 8
11 11 12 14 15 15 15 15 15 14 13 13 13 13 13 13 13 14 12 12 13 12 9 10 11 11 10 11 11 11 12 16 10 16 21 22 22 24 14 14 14 12 11 10 10 10 10 10 10 14 18 17 16 15 15 13 15 10 11 13 14 9 7 6 5 4 5 4 3 3 3 2 2 3 5 6 7 7 7 5 7 8 8 8 7
12 13 12 13 14 15 14 14 13 11 12 14 14 13 11 12 13 12 13 13 13 13 11 9 11 11 11 10 10 11 10 12 17 13 19 21 23 23 23 16 17 13 11 11 11 12 11 10 10 14 16 17 17 17 16 17 12 11 15 15 13 13 9 5 4 5 4 4 3 5 4 3 3 3 3 4 3 2 3 3 3 4 3 4 5
11 13 13 14 14 13 14 14 13 13 13 13 13 13 12 12 12 11 12 13 12 13 11 9 9 11 11 11 10 11 10 10 13 19 17 22 22 24 23 21 17 14 12 11 11 10 9 9 9 13 15 16 17 17 18 16 13 16 16 16 14 8 5 5 4 4 3 3 5 6 5 4 3 3 3 3 1 3 3 3 3 2 3 2 2
12 13 14 14 14 14 13 12 13 13 13 13 13 13 13 12 12 12 12 12 12 13 12 11 10 10 11 11 11 11 10 10 10 14 20 21 22 22 23 23 19 19 14 10 9 9 8 10 11 14 15 16 18 17 14 15 17 16 16 16 12 6 6 5 5 5 5 6 7 6 6 6 6 6 5 5 2 2 2 1 1 2 2 2 2
13 14 14 13 14 14 14 13 13 14 13 12 13 12 13 12 12 12 12 12 13 13 12 12 12 10 10 11 11 11 11 10 10 9 11 16 18 22 25 24 22 18 16 10 11 9 11 10 9 6 4 6 6 5 7 10 14 15 14 10 5 7 6 6 5 6 7 7 7 7 7 5 5 5 5 4 5 6 4 4 3 2 2 1 0
13 13 14 13 13 13 15 13 12 13 13 12 11 11 12 12 13 12 12 13 14 14 13 13 13 12 11 10 10 11 11 11 9 8 10 10 10 13 14 14 16 11 6 3 3 5 7 8 7 8 6 10 8 7 7 6 4 5 6 7 7 6 6 6 7 8 7 7 7 6 5 5 5 4 6 6 6 5 5 4 4 4 2 1 2
13 14 14 13 12 13 13 16 15 11 12 12 12 12 12 13 13 14 15 15 15 14 13 14 14 14 13 11 10 9 10 10 10 11 11 11 10 8 10 10 10 11 10 8 6 6 6 3 5 4 4 4 3 3 3 4 5 5 5 6 6 6 7 8 6 5 6 6 5 3 3 4 6 7 6 4 3 4 4 5 5 3 3 3 1
13 13 13 12 12 12 12 12 12 12 11 12 11 11 12 13 12 11 11 11 12 13 14 14 13 13 13 12 12 10 9 11 13 13 13 15 14 11 9 10 10 10 14 16 9 4 4 4 4 5 5 6 5 5 5 4 4 4 4 5 6 6 6 6 7 7 6 5 5 6 6 6 3 2 2 3 5 6 5 5 3 6 3 3 2
8 11 11 11 11 11 11 11 11 11 12 12 11 4 11 11 5 6 10 14 15 16 12 12 13 12 12 12 13 14 14 13 10 17 18 19 19 21 19 18 18 15 16 19 13 9 7 6 7 7 6 6 6 5 5 5 5 5 5 5 5 5 6 7 7 6 5 6 6 6 7 3 2 4 5 6 2 3 6 7 5 5 4 4 2
5 6 8 9 11 11 11 10 11 11 11 12 11 9 6 4 12 11 9 6 13 16 16 15 13 14 13 11 12 16 13 9 15 18 18 19 20 20 19 19 19 20 17 10 6 8 8 9 8 7 6 5 6 6 5 6 6 6 6 6 6 7 8 8 7 6 7 7 7 5 2 4 5 5 5 6 6 4 4 3 4 4 4 5 4
5 4 3 4 8 10 9 10 11 12 10 8 7 8 9 9 2 12 13 11 2 8 10 13 16 18 17 14 9 5 5 10 16 17 19 20 21 20 18 17 18 19 15 17 10 9 9 9 8 8 7 6 6 5 6 6 6 7 6 6 7 8 8 8 8 8 7 7 6 5 6 5 5 5 4 4 3 2 3 4 3 1 0 1 3
4 2 4 5 6 4 2 0 3 4 4 5 4 1 7 10 8 4 8 11 10 9 8 6 2 11 17 15 17 15 14 12 15 16 18 19 18 18 19 18 15 12 14 8 8 9 8 9 8 7 7 8 7 7 7 7 7 7 7 8 8 8 9 8 6 7 7 6 6 6 7 7 6 5 5 5 5 5 3 1 1 1 3 5 4
3 1 1 1 1 2 5 6 8 10 10 10 9 5 5 6 1 8 6 4 4 7 11 13 12 7 5 4 12 16 16 16 15 16 16 18 19 16 12 6 10 16 15 11 10 10 9 9 9 8 7 7 7 7 7 8 8 8 7 8 7 6 5 5 6 6 6 7 7 7 6 5 6 7 5 3 4 4 1 2 2 2 4 6 6
3 4 3 5 4 4 4 2 1 4 6 8 10 11 11 10 9 8 10 9 7 5 2 4 10 13 6 5 6 5 8 10 13 15 15 15 15 17 16 11 7 3 5 6 7 7 7 7 7 7 6 7 7 7 8 8 7 8 7 6 6 7 7 7 7 6 7 7 7 7 7 7 6 6 5 4 3 1 2 1 3 5 5 5 3
4 1 3 0 7 4 4 5 6 2 4 7 8 8 10 12 12 11 11 11 10 10 6 3 3 5 10 11 10 9 9 10 10 12 15 18 19 20 10 7 6 7 8 7 7 6 6 7 7 7 7 7 5 6 7 7 7 6 6 6 7 8 8 7 7 7 7 7 7 7 7 7 7 6 5 4 2 0 1 2 4 5 4 3 2
9 6 2 4 5 6 3 7 8 10 9 8 9 10 10 10 9 8 6 7 8 7 8 7 6 5 6 6 7 9 10 12 12 13 13 17 18 12 7 9 9 8 7 7 6 5 5 4 4 4 4 4 4 3 2 2 2 4 4 5 6 7 6 7 7 8 8 7 6 6 6 5 4 4 4 2 1 1 2 3 5 5 5 5 4
10 9 7 5 3 6 6 5 5 10 10 8 8 9 10 10 10 9 10 11 11 11 9 8 8 9 8 3 2 3 9 12 16 13 10 7 3 2 6 6 6 7 7 5 5 5 5 4 4 5 5 5 5 5 5 5 5 5 6 8 8 8 10 9 8 7 6 6 6 6 6 5 6 6 4 3 3 2 2 4 2 4 6 5 2
9 15 19 15 9 4 2 5 6 6 7 8 9 9 9 9 10 11 10 6 7 9 10 11 10 9 8 6 6 5 8 6 6 7 6 4 4 5 5 5 6 6 6 6 6 7 6 6 5 5 5 5 5 5 5 6 6 6 5 6 8 8 9 7 7 6 5 5 5 5 5 5 5 4 4 2 1 2 3 2 1 0 2 3 2
10 8 12 17 10 11 8 3 3 6 6 7 7 7 7 7 7 7 8 9 9 7 6 6 8 9 9 8 7 6 6 7 6 6 6 5 6 5 6 6 6 7 7 7 7 7 8 7 6 7 7 6 6 7 6 6 6 7 7 7 6 6 5 6 5 5 4 2 3 4 4 4 3 2 1 2 3 3 2 0 1 1 1 1 1
10 10 10 12 12 10 10 9 8 2 5 4 6 7 7 7 7 5 6 6 6 6 5 4 4 5 7 9 8 5 6 6 7 7 7 7 7 7 7 7 7 8 8 8 7 7 7 7 7 7 7 6 6 5 5 5 4 4 4 6 6 7 5 4 4 4 4 4 3 4 2 3 3 3 3 3 4 3 3 2 1 1 1 1 0
10 11 11 9 11 11 11 11 8 8 8 5 5 5 6 8 8 8 9 9 8 8 7 6 5 5 9 18 17 17 11 7 7 9 8 8 8 8 8 8 7 8 8 8 8 9 9 10 9 8 9 9 9 8 7 7 7 7 7 7 8 8 8 7 6 6 6 5 3 1 2 2 2 3 3 4 1 1 1 1 1 2 2 2 2
10 10 10 9 10 11 11 9 7 8 11 10 9 8 9 9 8 8 9 9 9 8 7 8 7 8 11 15 18 17 11 10 8 9 9 9 9 9 9 9 8 9 9 9 8 8 9 10 10 9 10 10 9 9 8 7 6 6 7 7 7 8 7 7 7 6 5 6 6 5 3 1 1 2 2 2 3 3 3 3 4 3 3 3 3
9 9 8 9 10 11 11 9 6 8 12 14 14 12 10 9 9 9 10 10 10 10 8 8 8 9 9 12 14 13 10 10 9 9 10 9 9 9 9 9 9 9 9 9 9 9 10 10 10 10 10 9 9 9 8 6 6 6 5 5 6 6 5 5 5 5 5 4 4 4 5 5 5 3 2 2 2 3 4 4 4 2 2 1 0
8 8 8 9 10 10 12 9 8 8 14 13 11 10 10 9 11 10 10 11 11 10 9 9 8 9 10 10 11 12 10 10 10 10 10 10 10 10 9 10 10 10 10 9 9 10 10 10 10 11 11 9 9 9 9 8 8 8 7 7 6 6 5 5 5 4 4 3 4 4 5 6 6 6 6 6 6 5 6 6 4 4 5 5 6
8 7 8 8 8 7 7 7 8 12 13 12 11 11 10 11 11 11 11 12 11 10 10 10 10 10 11 11 11 11 10 10 10 10 10 10 10 10 10 10 11 11 11 10 10 11 11 10 10 10 10 9 9 9 8 8 7 8 7 7 6 5 4 4 4 4 4 4 4 4 4 6 6 6 7 5 6 6 6 5 5 5 5 5 5
9 9 9 7 7 7 7 8 10 11 12 12 11 11 10 10 11 12 13 13 12 10 11 10 11 11 10 10 10 11 10 11 10 11 11 11 11 10 10 10 10 11 11 11 11 11 12 12 10 10 10 9 9 9 8 7 7 7 6 6 5 5 5 5 4 4 4 4 3 4 6 6 6 6 7 6 6 6 6 6 5 5 5 5 5
8 9 9 9 9 8 8 9 11 12 11 11 11 11 10 10 11 12 11 11 11 10 11 11 11 10 10 10 10 10 10 10 10 10 10 11 11 11 11 12 12 11 11 11 11 11 11 11 11 10 9 9 9 8 7 7 6 6 6 6 6 6 7 8 4 4 5 5 5 6 6 6 6 6 6 6 6 5 6 5 5 5 4 4 4
9 9 8 9 8 9 8 9 9 8 9 10 11 11 10 10 11 10 11 11 10 9 10 11 10 10 10 10 10 11 11 11 11 11 10 10 10 11 11 10 11 11 11 11 11 11 10 10 10 10 9 8 8 8 8 7 7 7 6 6 8 12 11 12 7 6 8 6 7 7 7 7 8 7 7 6 6 5 5 5 5 5 5 5 5
8 9 9 9 9 9 9 8 8 8 7 7 10 11 10 11 11 10 9 11 12 8 8 10 10 9 10 10 10 10 10 10 11 11 11 11 11 11 11 12 11 10 10 10 10 9 9 10 10 9 8 8 8 8 7 7 7 7 6 6 11 14 14 14 15 15 11 7 8 7 7 7 7 7 6 6 6 7 7 6 5 5 5 5 5
9 9 9 9 9 9 8 8 8 8 9 8 8 9 11 11 10 10 10 12 13 7 7 10 10 9 10 10 11 11 11 11 10 10 10 10 10 10 10 11 11 11 11 11 10 9 9 9 9 9 8 8 8 8 8 8 8 8 10 14 17 16 16 14 12 13 15 9 6 7 7 7 7 7 7 6 6 6 6 6 6 5 5 6 6
Wind_Direction
188 193 193 197 194 192 192 191 192 191 191 191 193 194 192 189 190 191 188 194 187 188 190 190 188 184 181 182 180 181 182 182 182 181 181 183 184 183 185 188 197 207 194 197 203 205 219 227 224 219 200 199 230 280 146 184 187 189 186 176 188 190 165 178 195 256 291 243 249 266 278 297 300 267 292 297 309 308 308 284 276 269 262 259 259
190 189 192 196 197 195 195 192 192 190 191 192 195 194 195 193 192 189 189 195 193 192 191 189 188 185 183 184 181 182 184 183 182 180 185 186 191 188 187 189 193 203 198 208 209 211 199 206 221 226 216 204 201 217 247 240 190 202 204 187 195 205 196 174 213 216 259 297 277 274 281 250 269 283 280 291 300 308 304 302 294 273 268 266 263
188 187 191 194 199 198 194 194 192 192 193 194 196 195 197 196 192 193 194 193 194 196 192 189 187 186 186 184 183 182 184 186 185 185 188 188 191 196 194 189 192 194 197 205 212 213 204 199 208 203 193 199 215 223 218 227 229 202 219 214 208 219 210 199 194 226 240 258 247 266 256 272 239 277 280 275 279 280 288 286 285 284 277 266 263
186 187 190 195 198 197 198 196 194 194 196 196 197 196 194 196 194 195 196 194 194 196 193 189 185 186 187 187 186 185 185 188 191 190 190 189 192 195 199 192 192 195 196 199 204 206 212 208 213 202 197 201 216 217 219 224 240 242 214 211 214 219 219 215 212 213 237 250 272 232 249 249 274 265 271 273 279 279 267 275 275 277 276 273 264
187 189 191 194 195 198 200 198 197 196 197 198 199 196 195 194 195 196 195 197 196 194 195 189 185 186 188 188 189 189 189 190 192 194 193 193 193 194 198 200 194 196 199 198 197 199 209 213 213 203 197 201 216 214 213 216 223 232 252 237 206 211 216 210 214 210 223 243 267 250 237 252 249 258 256 277 281 274 277 270 266 265 273 271 271
187 188 190 193 196 198 199 199 200 199 198 198 198 197 196 194 194 196 194 196 195 194 193 192 187 188 190 190 190 192 190 191 193 195 195 192 193 195 197 200 203 197 197 199 199 198 204 210 211 210 205 205 215 215 209 211 209 216 226 242 249 242 233 238 230 233 235 251 249 284 277 261 286 260 255 253 268 283 285 278 282 273 270 284 278
186 188 190 194 196 199 198 200 199 199 199 199 198 197 197 195 194 196 195 197 195 194 193 193 192 190 192 191 192 193 192 193 194 195 195 192 192 194 197 202 203 203 204 201 203 201 205 209 210 206 209 213 217 215 211 212 207 214 213 222 227 224 230 235 230 235 240 253 264 245 265 259 241 277 267 246 252 245 262 293 295 279 271 266 286
186 188 189 195 199 200 200 198 198 198 198 198 198 197 196 196 195 195 195 198 198 195 192 192 192 192 193 193 194 192 193 192 194 195 195 192 191 195 196 200 204 204 204 206 205 206 207 210 211 209 210 211 212 218 208 213 209 213 213 206 216 220 231 234 233 229 239 248 249 264 252 263 262 260 287 322 303 292 259 237 262 281 295 290 246
187 188 191 195 199 199 198 198 197 196 195 195 197 197 197 196 194 193 195 199 200 198 193 191 191 193 193 194 195 194 195 197 193 193 194 195 193 196 197 198 202 206 207 205 206 207 210 213 215 215 212 217 216 215 213 208 200 210 219 207 210 208 220 227 228 232 240 240 259 254 265 271 262 272 285 273 256 256 264 254 267 260 264 302 301
187 189 193 196 195 195 196 196 196 196 195 196 198 197 195 195 193 192 193 196 198 199 194 191 192 193 193 194 194 194 196 199 198 193 192 193 195 197 197 201 201 203 205 208 209 208 211 212 215 213 214 217 219 220 221 217 212 205 207 204 208 208 211 215 225 229 231 240 246 246 261 262 259 241 251 250 247 264 282 265 250 290 327 316 306
189 190 194 193 191 191 193 197 195 197 197 196 197 197 196 195 194 192 192 193 196 198 194 192 193 193 194 194 195 196 196 198 196 193 194 195 194 197 196 201 202 203 203 204 208 209 212 213 218 218 216 217 219 221 222 222 221 218 213 204 198 197 205 211 223 218 220 234 241 237 241 260 259 241 242 256 260 248 240 219 254 317 334 324 309
190 192 191 187 188 190 194 194 196 198 196 198 197 198 196 195 195 192 191 191 193 195 196 194 193 193 195 195 197 199 200 198 192 194 194 195 195 198 200 200 203 206 206 205 209 208 209 212 216 222 227 220 217 224 227 227 225 224 224 222 214 204 198 198 211 220 220 234 246 243 241 244 258 239 248 244 261 271 274 297 267 291 290 287 269
189 189 188 188 189 190 190 193 196 197 197 197 197 198 198 197 196 193 193 191 190 194 197 190 194 192 192 193 197 199 203 199 193 193 195 196 198 199 203 202 202 208 208 209 209 208 209 211 213 219 225 231 218 212 217 229 233 233 232 232 230 223 221 219 210 205 194 216 231 249 234 245 255 251 221 221 183 259 286 288 275 266 249 252 260
190 189 188 189 190 189 190 192 196 197 196 196 196 198 200 201 199 196 192 189 191 194 196 196 191 192 192 192 195 198 202 196 192 193 195 197 200 199 208 206 207 208 208 209 210 209 208 208 213 222 226 229 226 212 209 217 220 227 234 237 237 241 236 232 234 238 228 221 221 245 253 223 250 255 251 242 265 263 267 268 264 267 260 255 245
190 189 190 189 188 189 191 192 194 194 194 195 195 198 200 202 201 197 193 191 191 193 194 197 192 190 192 191 191 195 203 191 189 192 196 198 201 198 209 211 214 214 211 209 210 211 210 208 211 220 224 230 229 217 214 213 211 218 223 228 231 234 232 232 226 220 218 226 232 242 254 249 247 252 255 241 230 238 227 247 262 262 257 286 311
192 188 191 189 191 191 190 192 193 192 193 193 196 198 199 200 200 198 196 193 195 193 197 196 194 190 189 191 193 196 198 184 187 190 195 199 196 196 207 213 216 218 214 208 208 211 211 210 212 218 220 223 232 227 219 213 213 217 221 228 234 236 238 232 224 217 217 220 226 235 240 241 242 244 245 242 245 249 264 296 314 326 356 308 282
195 191 191 191 192 191 190 190 192 193 192 193 196 197 197 199 200 197 199 194 189 194 195 195 194 195 191 188 193 197 199 185 185 189 194 197 187 198 203 210 217 219 219 213 208 207 209 212 215 217 219 222 223 222 226 211 215 218 222 229 232 234 243 240 221 221 225 230 231 231 236 240 244 249 256 256 248 246 283 307 271 267 292 288 287
199 192 194 192 190 189 189 190 192 193 193 196 196 197 196 197 199 195 199 197 193 192 193 195 195 197 197 195 190 192 199 186 187 189 193 192 185 195 201 205 216 218 224 222 209 209 214 216 212 214 217 222 218 214 218 211 222 221 222 227 231 236 245 238 237 224 228 235 240 244 248 252 254 255 251 247 241 212 194 235 249 229 260 256 279
202 195 196 191 188 188 188 190 193 194 196 198 196 195 195 194 195 196 201 202 199 188 190 194 195 197 199 201 195 189 194 185 191 192 193 189 189 196 195 202 211 217 218 226 226 225 230 230 228 222 219 220 214 211 211 203 216 221 222 227 236 241 242 228 232 248 240 215 243 244 254 247 245 240 240 234 224 209 213 233 252 238 254 260 266
207 196 184 186 189 189 190 191 193 195 198 197 197 197 192 191 194 196 200 201 200 192 187 192 194 198 197 199 200 200 196 176 190 196 193 190 190 191 195 196 208 214 213 215 222 229 233 235 235 235 228 225 215 209 210 202 208 218 216 224 236 242 238 227 235 232 252 258 263 232 235 238 231 226 232 229 221 213 219 229 234 234 244 253 255
206 187 180 187 190 191 192 193 194 196 196 196 196 195 193 195 193 194 197 199 200 198 190 190 194 196 197 199 201 199 205 194 187 192 195 191 194 193 192 199 205 207 208 211 216 220 226 231 234 231 229 228 226 220 211 206 209 213 213 224 226 238 221 226 232 236 241 254 269 263 249 242 226 210 210 216 222 223 220 223 229 226 230 242 250
202 190 182 187 191 192 194 194 193 193 192 190 193 198 198 195 194 195 195 196 198 200 194 189 192 194 197 199 202 203 202 202 179 193 191 194 194 198 196 202 202 201 204 212 214 219 223 224 227 229 228 230 231 227 223 215 213 215 224 224 231 216 208 217 212 225 251 262 288 315 324 327 280 249 229 213 215 224 224 220 216 223 223 228 229
200 192 185 186 190 192 193 190 190 191 191 191 193 197 194 195 195 193 194 195 197 199 197 190 191 192 196 198 201 204 200 204 183 183 195 194 197 200 204 203 200 200 201 208 211 217 219 221 227 225 223 225 228 228 226 222 215 222 228 229 226 209 207 199 213 233 253 270 291 285 285 297 314 299 278 257 251 169 153 173 163 170 162 169 166
200 193 188 188 187 191 190 189 189 191 189 187 191 193 193 196 195 193 194 194 196 199 200 195 189 190 193 196 200 203 201 199 189 186 190 197 198 200 208 212 192 201 204 212 214 217 215 216 222 222 219 221 223 225 227 221 219 223 225 229 225 199 193 202 220 230 246 267 265 265 268 266 274 273 271 259 211 161 149 127 120 137 165 194 210
197 196 192 189 187 188 186 188 189 190 189 186 190 193 194 191 195 196 193 197 198 199 200 198 196 191 191 195 198 200 199 199 193 195 190 192 197 200 207 211 211 201 205 218 214 213 210 205 212 219 222 220 222 226 229 229 227 228 224 224 223 199 204 207 217 225 236 243 249 254 255 243 236 243 240 246 218 138 123 137 147 180 181 181 200
200 197 193 189 188 184 185 188 188 190 189 190 193 193 193 194 198 196 196 199 199 199 199 199 201 197 195 194 196 198 198 201 193 188 197 193 198 202 204 208 212 209 210 217 214 182 182 189 183 175 191 215 220 220 221 224 223 224 230 229 219 215 210 209 217 217 236 240 240 243 243 237 237 240 238 227 193 201 183 176 166 207 154 115 102
201 199 193 189 186 185 185 187 188 189 190 191 193 193 195 197 198 198 199 201 200 201 198 198 200 201 202 197 195 195 199 201 191 183 187 191 204 208 211 218 218 214 236 261 130 157 160 161 166 172 164 174 185 201 209 214 190 203 217 218 213 212 208 204 209 214 222 231 237 241 236 231 231 232 231 210 206 204 181 168 176 199 165 126 115
200 197 194 187 186 187 190 186 183 185 190 193 194 195 197 199 201 202 201 199 198 197 197 197 199 199 202 199 194 195 198 199 194 188 191 193 194 188 196 200 194 202 209 216 206 176 163 132 123 145 130 131 178 147 184 187 201 194 206 201 207 209 212 216 217 221 226 224 238 229 243 220 222 220 209 187 180 190 180 169 187 176 126 114 64
201 199 192 188 188 187 187 185 185 184 189 192 198 194 197 203 207 213 212 206 203 199 197 199 200 200 198 197 196 200 197 201 207 190 184 181 179 182 184 194 201 202 209 205 190 178 143 159 181 181 191 188 191 198 196 185 204 205 196 189 197 199 201 196 210 217 217 205 220 219 228 227 215 86 122 172 203 202 191 168 148 139 142 113 154
216 201 194 191 188 187 186 184 186 186 187 189 186 109 38 58 33 212 212 205 208 210 202 204 200 194 197 202 199 196 203 210 171 165 177 179 184 183 188 190 192 195 203 202 194 197 195 197 199 195 193 195 200 206 204 203 208 208 210 198 192 196 202 209 214 211 190 206 211 214 217 182 134 169 187 193 175 195 184 163 164 150 134 141 158
271 224 202 199 192 186 184 183 185 187 188 187 185 162 136 56 48 38 360 289 204 202 204 209 203 198 194 201 206 211 211 169 162 173 171 179 186 192 193 192 190 199 194 155 187 207 212 213 218 215 206 200 208 210 208 207 213 210 212 196 200 208 213 213 206 195 201 203 211 196 128 136 159 171 176 172 179 180 162 172 149 146 147 164 184
301 290 258 236 200 186 182 186 186 191 188 173 154 159 166 163 118 31 30 12 17 176 188 196 190 186 197 192 170 196 201 190 174 169 179 181 188 193 195 188 192 197 182 163 179 198 211 212 213 216 212 215 219 212 206 213 213 211 207 204 210 215 211 216 202 197 197 193 188 144 140 148 158 175 165 166 158 97 56 36 24 69 238 188 207
327 1 49 33 12 340 356 194 97 57 41 46 35 269 184 171 157 111 39 37 44 56 59 38 206 206 196 183 174 180 186 191 192 179 178 184 184 190 191 191 188 158 126 155 194 200 208 212 214 207 196 211 211 211 216 214 219 216 214 210 206 209 212 206 178 184 181 170 143 140 150 159 147 127 126 140 112 86 76 81 4 317 266 260 260
356 0 122 17 36 95 147 172 157 145 144 138 139 136 349 347 42 119 109 115 73 52 43 38 25 45 80 164 196 190 183 180 180 182 176 178 182 176 149 115 133 161 169 180 187 200 200 205 209 204 204 205 208 205 213 219 220 224 220 218 206 187 167 142 140 138 128 126 133 147 155 148 143 136 148 128 106 111 134 208 223 254 266 237 222
353 343 88 126 125 156 154 142 83 100 124 143 153 147 142 156 189 181 168 162 163 144 133 29 26 21 30 43 55 121 162 174 173 174 169 158 139 131 117 112 118 185 231 226 197 200 196 197 200 203 206 205 209 209 217 219 220 220 209 175 141 137 133 126 123 130 125 126 132 141 141 134 128 129 132 124 114 133 212 260 269 247 239 231 223
307 215 309 189 108 96 89 68 92 116 188 151 147 157 167 176 170 182 172 163 159 151 137 74 33 47 60 50 51 71 96 116 135 143 147 144 146 138 143 163 153 176 189 192 189 176 167 182 190 202 204 217 213 212 213 208 205 190 169 154 143 141 140 134 131 122 119 121 133 143 142 140 141 134 127 112 120 141 319 284 269 259 246 240 231
6 352 92 139 117 109 154 163 167 162 163 154 152 151 158 163 160 143 151 162 148 139 120 135 143 107 72 62 67 69 82 97 104 118 138 151 160 162 160 163 170 161 177 179 166 146 118 93 101 96 86 97 71 59 48 87 119 127 120 111 121 115 112 119 119 125 127 133 138 141 140 137 119 115 124 125 114 213 260 277 269 272 265 246 209
23 15 351 10 111 170 192 187 171 155 153 158 162 158 150 155 159 159 166 170 155 144 148 156 145 142 139 118 52 115 108 105 98 89 103 128 156 138 133 144 150 154 146 130 117 110 98 84 79 97 91 96 96 91 95 80 67 71 96 103 91 90 96 94 89 93 118 135 144 153 143 134 130 132 131 144 167 189 229 242 270 299 301 293 248
25 26 21 14 23 352 178 146 145 156 159 162 164 163 164 170 173 170 167 178 159 158 163 159 154 147 140 147 136 157 120 109 120 133 130 118 79 82 93 99 104 107 105 108 106 101 98 94 85 84 86 80 80 76 84 94 93 84 69 83 103 113 109 118 127 136 133 147 156 138 131 141 146 148 148 149 181 208 238 263 250 179 4 354 333
11 17 31 24 24 28 23 22 151 161 162 156 152 151 152 165 183 177 164 160 164 165 176 170 142 136 141 143 145 154 134 133 132 137 122 96 90 76 81 98 103 109 114 106 101 103 101 93 90 82 79 80 87 90 78 72 79 101 107 102 100 95 109 127 140 133 134 99 88 111 146 155 142 126 131 176 215 215 188 200 259 287 288 304 306
7 9 26 35 31 34 32 33 22 53 134 114 136 148 148 133 125 119 120 115 119 110 95 78 91 103 116 112 108 100 113 116 114 99 98 102 94 87 84 86 96 96 94 97 97 94 89 85 71 70 62 54 44 45 58 75 89 90 93 104 106 118 116 95 88 87 88 87 112 149 142 133 152 164 189 193 167 165 177 184 214 274 281 246 189
17 17 18 22 30 38 39 27 14 41 66 80 84 88 97 108 118 122 119 113 105 106 105 92 84 94 83 92 96 92 87 82 85 94 89 81 78 75 76 76 75 81 82 80 81 84 82 76 69 62 60 51 50 39 36 39 45 60 58 60 65 68 69 59 48 45 48 55 49 63 191 183 164 151 163 165 186 240 285 279 248 220 234 243 225
22 25 22 21 32 40 30 18 1 54 69 64 55 54 65 72 80 88 93 97 96 96 98 104 102 91 85 85 88 86 86 82 79 79 80 82 82 81 76 72 72 74 79 83 84 84 83 82 76 68 63 59 53 52 43 27 35 53 57 60 63 63 54 45 36 27 20 33 34 32 46 51 165 169 191 200 208 211 226 225 227 236 253 261 257
15 25 28 35 35 43 36 9 348 65 80 77 77 71 68 74 77 82 86 82 83 83 77 76 80 82 83 78 81 83 86 86 86 85 82 81 79 79 77 74 74 72 70 69 70 75 79 79 80 75 68 62 55 52 46 30 22 30 27 46 55 53 46 36 27 18 11 8 10 30 41 36 32 20 347 292 255 234 242 243 235 201 193 192 120
21 14 25 37 42 42 46 20 323 44 67 68 65 66 64 66 69 64 65 72 70 71 71 70 67 73 77 76 82 85 86 83 82 82 79 80 81 78 75 74 71 70 68 65 66 71 75 75 76 74 68 60 53 50 50 40 38 38 30 35 45 45 30 14 352 348 340 353 8 22 30 23 18 14 26 34 33 38 47 33 28 22 35 35 39
18 22 31 35 45 55 61 51 21 41 53 54 55 58 58 59 64 66 67 69 67 69 71 68 67 67 69 74 76 79 81 84 81 78 78 76 75 75 75 75 76 73 71 69 68 68 71 70 69 72 71 67 59 55 50 46 44 49 40 40 35 32 8 330 313 347 342 356 0 14 28 46 46 47 49 48 55 55 55 45 46 52 53 49 48
9 22 27 27 32 40 51 73 65 55 56 58 58 56 54 56 64 67 66 68 73 72 70 71 70 70 70 71 75 77 79 78 79 77 77 75 73 70 69 72 77 80 78 76 73 72 70 69 66 66 68 65 63 57 51 46 42 42 41 39 31 12 358 333 332 351 339 311 316 11 45 59 55 49 42 42 48 46 50 46 42 39 33 37 32
16 16 21 24 26 30 30 44 65 69 68 67 68 66 66 65 61 62 60 61 64 69 73 74 73 74 76 75 72 73 72 72 72 74 76 76 75 74 74 74 73 73 73 70 68 68 71 72 70 64 65 62 61 57 51 45 40 36 35 30 26 13 348 336 346 355 322 342 17 36 40 53 54 49 41 41 41 34 39 27 24 23 22 19 15
28 23 18 21 28 27 23 31 33 51 71 75 74 73 66 66 66 66 69 64 55 57 69 74 74 74 75 74 78 78 77 75 73 69 67 67 71 75 74 73 75 77 78 78 73 71 70 69 69 64 61 59 59 58 54 46 38 31 25 27 11 14 19 21 23 5 2 12 30 33 41 49 51 47 36 33 30 25 26 19 18 15 8 8 8
32 31 33 27 24 27 29 30 33 41 45 63 85 87 79 76 73 69 68 78 73 48 62 70 72 72 75 73 73 72 74 77 78 76 73 71 69 70 73 70 64 61 66 70 70 72 73 73 70 66 61 57 53 56 53 53 43 30 24 13 17 25 22 22 27 22 23 20 24 34 36 47 48 46 36 28 22 18 16 6 10 8 8 4 4
39 42 37 34 30 28 27 28 32 39 47 47 50 75 85 85 80 77 79 72 77 69 64 75 76 73 76 78 78 78 79 79 77 79 77 75 75 75 76 78 76 72 70 71 66 60 54 55 56 57 53 49 45 46 44 42 38 28 20 23 28 26 25 25 22 16 21 23 39 41 47 44 44 36 28 20 20 20 10 3 3 357 1 6 5